TimeEEST,TemperatureF,Dew PointF,Humidity,Sea Level PressureIn,VisibilityMPH,Wind Direction,Wind SpeedMPH,Gust SpeedMPH,PrecipitationIn,Events,Conditions,WindDirDegrees,DateUTC
12:20 AM,75.2,68.0,78,29.89,6.2,North,6.9,-,N/A,,Scattered Clouds,360,2013-06-28 21:20:00
12:50 AM,75.2,68.0,78,29.89,6.2,NNW,8.1,-,N/A,,Scattered Clouds,340,2013-06-28 21:50:00
1:20 AM,77.0,68.0,74,29.89,6.2,Variable,6.9,-,N/A,,Scattered Clouds,0,2013-06-28 22:20:00
1:50 AM,75.2,66.2,73,29.89,6.2,North,9.2,-,N/A,,Scattered Clouds,350,2013-06-28 22:50:00
2:20 AM,73.4,68.0,83,29.89,6.2,North,12.7,-,N/A,,Scattered Clouds,360,2013-06-28 23:20:00
2:50 AM,75.2,68.0,78,29.89,6.2,North,10.4,-,N/A,,Scattered Clouds,360,2013-06-28 23:50:00
3:00 AM,74,67,73,29.88,6,North,10.4,,,,Scattered Clouds,0,2013-06-29 00:00:00
3:20 AM,75.2,66.2,73,29.89,6.2,North,11.5,-,N/A,,Scattered Clouds,360,2013-06-29 00:20:00
3:50 AM,73.4,66.2,78,29.89,6.2,NNW,11.5,-,N/A,,Scattered Clouds,340,2013-06-29 00:50:00
4:20 AM,73.4,66.2,78,29.89,6.2,North,9.2,-,N/A,,Scattered Clouds,350,2013-06-29 01:20:00
4:50 AM,73.4,66.2,78,29.89,-9999.0,North,17.3,-,N/A,,Clear,350,2013-06-29 01:50:00
5:20 AM,73.4,66.2,78,29.86,-9999.0,North,18.4,-,N/A,,Clear,360,2013-06-29 02:20:00
5:50 AM,73.4,62.6,69,29.86,-9999.0,North,18.4,-,N/A,,Clear,350,2013-06-29 02:50:00
6:20 AM,73.4,62.6,69,29.89,-9999.0,North,17.3,-,N/A,,Clear,360,2013-06-29 03:20:00
6:50 AM,75.2,62.6,65,29.89,-9999.0,North,17.3,-,N/A,,Clear,360,2013-06-29 03:50:00
7:20 AM,75.2,60.8,61,29.89,-9999.0,North,15.0,-,N/A,,Clear,10,2013-06-29 04:20:00
7:50 AM,75.2,60.8,61,29.89,-9999.0,North,13.8,-,N/A,,Clear,10,2013-06-29 04:50:00
8:20 AM,77.0,60.8,57,29.89,-9999.0,North,15.0,-,N/A,,Clear,360,2013-06-29 05:20:00
8:50 AM,78.8,59.0,51,29.89,-9999.0,NNE,13.8,-,N/A,,Clear,20,2013-06-29 05:50:00
9:00 AM,79,59,41,29.88,6,NNE,13.8,,,,Partly Cloudy,20,2013-06-29 06:00:00
9:20 AM,78.8,59.0,51,29.89,-9999.0,North,16.1,-,N/A,,Clear,10,2013-06-29 06:20:00
9:50 AM,78.8,60.8,54,29.89,6.2,North,15.0,-,N/A,,Mostly Cloudy,10,2013-06-29 06:50:00
10:20 AM,80.6,60.8,51,29.86,6.2,North,17.3,-,N/A,,Scattered Clouds,10,2013-06-29 07:20:00
10:50 AM,80.6,62.6,54,29.86,6.2,NNE,15.0,-,N/A,,Scattered Clouds,30,2013-06-29 07:50:00
11:20 AM,80.6,62.6,54,29.89,6.2,NNE,13.8,-,N/A,,Scattered Clouds,20,2013-06-29 08:20:00
11:50 AM,80.6,62.6,54,29.89,6.2,NNE,13.8,-,N/A,,Scattered Clouds,20,2013-06-29 08:50:00
12:20 PM,82.4,62.6,51,29.89,6.2,North,16.1,-,N/A,,Scattered Clouds,360,2013-06-29 09:20:00
12:50 PM,82.4,62.6,51,29.86,6.2,North,16.1,-,N/A,,Scattered Clouds,10,2013-06-29 09:50:00
1:20 PM,82.4,60.8,48,29.86,6.2,North,13.8,-,N/A,,Scattered Clouds,10,2013-06-29 10:20:00
1:50 PM,82.4,60.8,48,29.86,6.2,NNE,15.0,-,N/A,,Partly Cloudy,20,2013-06-29 10:50:00
2:20 PM,82.4,62.6,51,29.86,6.2,NE,13.8,-,N/A,,Scattered Clouds,40,2013-06-29 11:20:00
2:50 PM,82.4,62.6,51,29.83,6.2,NE,11.5,-,N/A,,Scattered Clouds,40,2013-06-29 11:50:00
3:00 PM,83,64,43,29.84,6,NE,11.5,,,,Partly Cloudy,40,2013-06-29 12:00:00
3:20 PM,84.2,62.6,48,29.83,6.2,Variable,11.5,-,N/A,,Scattered Clouds,0,2013-06-29 12:20:00
3:50 PM,82.4,64.4,54,29.83,6.2,NNE,12.7,-,N/A,,Scattered Clouds,20,2013-06-29 12:50:00
4:20 PM,82.4,64.4,54,29.83,6.2,NNE,15.0,-,N/A,,Scattered Clouds,20,2013-06-29 13:20:00
4:50 PM,82.4,64.4,54,29.80,6.2,NNE,12.7,-,N/A,,Scattered Clouds,20,2013-06-29 13:50:00
5:20 PM,82.4,66.2,58,29.80,6.2,NNE,15.0,-,N/A,,Scattered Clouds,20,2013-06-29 14:20:00
5:50 PM,80.6,64.4,58,29.77,6.2,NNE,13.8,-,N/A,,Scattered Clouds,30,2013-06-29 14:50:00
6:20 PM,80.6,66.2,61,29.77,6.2,NE,11.5,-,N/A,,Scattered Clouds,50,2013-06-29 15:20:00
6:50 PM,78.8,64.4,61,29.77,6.2,NE,15.0,-,N/A,,Scattered Clouds,50,2013-06-29 15:50:00
7:20 PM,78.8,66.2,65,29.77,6.2,NE,13.8,-,N/A,,Scattered Clouds,40,2013-06-29 16:20:00
7:50 PM,80.6,66.2,61,29.77,6.2,NE,12.7,-,N/A,,Partly Cloudy,40,2013-06-29 16:50:00
8:20 PM,77.0,66.2,69,29.74,6.2,NE,13.8,-,N/A,,Scattered Clouds,40,2013-06-29 17:20:00
8:50 PM,77.0,66.2,69,29.74,6.2,NE,12.7,-,N/A,,Scattered Clouds,40,2013-06-29 17:50:00
9:00 PM,77,66,60,29.75,12,NE,12.7,,,,Partly Cloudy,40,2013-06-29 18:00:00
9:20 PM,77.0,66.2,69,29.74,6.2,NE,11.5,-,N/A,,Partly Cloudy,50,2013-06-29 18:20:00
9:50 PM,77.0,66.2,69,29.74,6.2,ENE,9.2,-,N/A,,Scattered Clouds,60,2013-06-29 18:50:00
10:20 PM,77.0,66.2,69,29.74,6.2,NE,10.4,-,N/A,,Scattered Clouds,50,2013-06-29 19:20:00
10:50 PM,77.0,66.2,69,29.74,6.2,NE,11.5,-,N/A,,Scattered Clouds,50,2013-06-29 19:50:00
11:20 PM,77.0,66.2,69,29.74,6.2,NE,6.9,-,N/A,,Scattered Clouds,40,2013-06-29 20:20:00
11:50 PM,77.0,66.2,69,29.74,6.2,NE,9.2,-,N/A,,Scattered Clouds,50,2013-06-29 20:50:00